Time,TemperatureF,DewpointF,PressureIn,WindDirection,WindDirectionDegrees,WindSpeedMPH,WindSpeedGustMPH,Humidity,HourlyPrecipIn,Conditions,Clouds,dailyrainin,SolarRadiationWatts/m^2,SoftwareType,DateUTC
2013-03-23 00:02:00,9.0,4.0,-100.00,WNW,282,0.0,2.0,79,-99.99,,,-99.99,0.000000,,2013-03-23 06:02:00,
2013-03-23 00:12:00,9.0,4.0,-100.00,WNW,282,0.0,2.0,79,-99.99,,,-99.99,0.000000,,2013-03-23 06:12:00,
2013-03-23 00:42:00,7.0,1.0,-100.00,WSW,257,4.0,5.0,77,-99.99,,,-99.99,0.000000,,2013-03-23 06:42:00,
2013-03-23 00:52:00,7.0,1.0,-100.00,WSW,257,4.0,5.0,77,-99.99,,,-99.99,0.000000,,2013-03-23 06:52:00,
2013-03-23 01:02:00,7.0,1.0,-100.00,WSW,257,4.0,5.0,77,-99.99,,,-99.99,0.000000,,2013-03-23 07:02:00,
2013-03-23 01:12:00,7.0,1.0,-100.00,WSW,257,4.0,5.0,77,-99.99,,,-99.99,0.000000,,2013-03-23 07:12:00,
2013-03-23 01:42:00,3.0,-3.0,-100.00,WNW,289,2.0,6.0,76,-99.99,,,-99.99,0.000000,,2013-03-23 07:42:00,
2013-03-23 01:52:00,3.0,-3.0,-100.00,WNW,289,2.0,6.0,76,-99.99,,,-99.99,0.000000,,2013-03-23 07:52:00,
2013-03-23 02:42:00,2.0,-4.0,-100.00,West,269,4.0,6.0,74,-99.99,,,-99.99,0.000000,,2013-03-23 08:42:00,
2013-03-23 02:52:00,2.0,-4.0,-100.00,West,269,4.0,6.0,74,-99.99,,,-99.99,0.000000,,2013-03-23 08:52:00,
2013-03-23 03:43:00,0.0,-7.0,-100.00,West,274,4.0,6.0,73,-99.99,,,-99.99,0.000000,,2013-03-23 09:43:00,
2013-03-23 03:53:00,0.0,-7.0,-100.00,West,274,4.0,6.0,73,-99.99,,,-99.99,0.000000,,2013-03-23 09:53:00,
2013-03-23 04:03:00,0.0,-99.9,-100.00,West,274,4.0,6.0,73,-99.99,,,-99.99,0.000000,,2013-03-23 10:03:00,
2013-03-23 04:43:00,-1.0,-8.0,-100.00,West,271,4.0,6.0,72,-99.99,,,-99.99,0.000000,,2013-03-23 10:43:00,
2013-03-23 04:52:00,-1.0,-8.0,-100.00,West,271,4.0,6.0,72,-99.99,,,-99.99,0.000000,,2013-03-23 10:52:00,
2013-03-23 05:42:00,0.0,-7.0,-100.00,West,268,4.0,6.0,73,-99.99,,,-99.99,0.000000,,2013-03-23 11:42:00,
2013-03-23 05:52:00,0.0,-7.0,-100.00,West,268,4.0,6.0,73,-99.99,,,-99.99,0.000000,,2013-03-23 11:52:00,
2013-03-23 06:03:00,0.0,-99.9,-100.00,West,268,4.0,6.0,73,-99.99,,,-99.99,0.000000,,2013-03-23 12:03:00,
2013-03-23 06:43:00,2.0,-4.0,-100.00,West,260,3.0,5.0,74,-99.99,,,-99.99,0.000000,,2013-03-23 12:43:00,
2013-03-23 06:53:00,2.0,-4.0,-100.00,West,260,3.0,5.0,74,-99.99,,,-99.99,0.000000,,2013-03-23 12:53:00,
2013-03-23 07:02:00,2.0,-4.0,-100.00,West,260,3.0,5.0,74,-99.99,,,-99.99,0.000000,,2013-03-23 13:02:00,
2013-03-23 07:43:00,1.0,-6.0,-100.00,West,273,4.0,6.0,71,-99.99,,,-99.99,0.000000,,2013-03-23 13:43:00,
2013-03-23 07:53:00,1.0,-6.0,-100.00,West,273,4.0,6.0,71,-99.99,,,-99.99,0.000000,,2013-03-23 13:53:00,
2013-03-23 08:03:00,1.0,-6.0,-100.00,West,273,4.0,6.0,71,-99.99,,,-99.99,0.000000,,2013-03-23 14:03:00,
2013-03-23 08:12:00,1.0,-6.0,-100.00,West,273,4.0,6.0,71,-99.99,,,-99.99,0.000000,,2013-03-23 14:12:00,
2013-03-23 08:43:00,4.0,-2.0,-100.00,West,260,2.0,6.0,74,-99.99,,,-99.99,6.000000,,2013-03-23 14:43:00,
2013-03-23 08:52:00,4.0,-2.0,-100.00,West,260,2.0,6.0,74,-99.99,,,-99.99,6.000000,,2013-03-23 14:52:00,
2013-03-23 09:02:00,4.0,-2.0,-100.00,West,260,2.0,6.0,74,-99.99,,,-99.99,6.000000,,2013-03-23 15:02:00,
2013-03-23 09:11:00,4.0,-2.0,-100.00,West,260,2.0,6.0,74,-99.99,,,-99.99,6.000000,,2013-03-23 15:11:00,
2013-03-23 09:44:00,19.0,7.0,-100.00,ESE,120,2.0,5.0,59,-99.99,,,-99.99,41.000000,,2013-03-23 15:44:00,
2013-03-23 09:53:00,19.0,7.0,-100.00,ESE,120,2.0,5.0,59,-99.99,,,-99.99,41.000000,,2013-03-23 15:53:00,
2013-03-23 10:12:00,19.0,7.0,-100.00,ESE,120,2.0,5.0,59,-99.99,,,-99.99,41.000000,,2013-03-23 16:12:00,
2013-03-23 10:43:00,17.0,4.0,-100.00,West,271,1.0,12.0,55,-99.99,,,-99.99,79.000000,,2013-03-23 16:43:00,
2013-03-23 10:53:00,17.0,4.0,-100.00,West,271,1.0,12.0,55,-99.99,,,-99.99,79.000000,,2013-03-23 16:53:00,
2013-03-23 11:02:00,17.0,4.0,-100.00,West,271,1.0,12.0,55,-99.99,,,-99.99,79.000000,,2013-03-23 17:02:00,
2013-03-23 11:11:00,17.0,4.0,-100.00,West,271,1.0,12.0,55,-99.99,,,-99.99,79.000000,,2013-03-23 17:11:00,
2013-03-23 11:43:00,15.0,3.0,-100.00,ENE,70,3.0,13.0,59,-99.99,,,-99.99,82.000000,,2013-03-23 17:43:00,
2013-03-23 11:52:00,15.0,3.0,-100.00,ENE,70,3.0,13.0,59,-99.99,,,-99.99,82.000000,,2013-03-23 17:52:00,
2013-03-23 12:02:00,15.0,3.0,-100.00,ENE,70,3.0,13.0,59,-99.99,,,-99.99,82.000000,,2013-03-23 18:02:00,
2013-03-23 12:12:00,15.0,3.0,-100.00,ENE,70,3.0,13.0,59,-99.99,,,-99.99,82.000000,,2013-03-23 18:12:00,
2013-03-23 12:43:00,18.0,6.0,-100.00,East,98,0.0,15.0,58,-99.99,,,-99.99,169.000000,,2013-03-23 18:43:00,
2013-03-23 12:53:00,18.0,6.0,-100.00,East,98,0.0,15.0,58,-99.99,,,-99.99,169.000000,,2013-03-23 18:53:00,
2013-03-23 13:02:00,18.0,6.0,-100.00,East,98,0.0,15.0,58,-99.99,,,-99.99,169.000000,,2013-03-23 19:02:00,
2013-03-23 13:12:00,18.0,6.0,-100.00,East,98,0.0,15.0,58,-99.99,,,-99.99,169.000000,,2013-03-23 19:12:00,
2013-03-23 13:43:00,18.0,5.0,-100.00,ESE,112,0.0,0.0,57,-99.99,,,-99.99,205.000000,,2013-03-23 19:43:00,
2013-03-23 13:53:00,18.0,5.0,-100.00,ESE,112,0.0,0.0,57,-99.99,,,-99.99,205.000000,,2013-03-23 19:53:00,
2013-03-23 14:02:00,18.0,5.0,-100.00,ESE,112,0.0,0.0,57,-99.99,,,-99.99,205.000000,,2013-03-23 20:02:00,
2013-03-23 14:12:00,18.0,5.0,-100.00,ESE,112,0.0,0.0,57,-99.99,,,-99.99,205.000000,,2013-03-23 20:12:00,
2013-03-23 14:43:00,18.0,6.0,-100.00,ESE,106,0.0,12.0,58,-99.99,,,-99.99,136.000000,,2013-03-23 20:43:00,
2013-03-23 14:53:00,18.0,6.0,-100.00,ESE,106,0.0,12.0,58,-99.99,,,-99.99,136.000000,,2013-03-23 20:53:00,
2013-03-23 15:02:00,18.0,6.0,-100.00,ESE,106,0.0,12.0,58,-99.99,,,-99.99,136.000000,,2013-03-23 21:02:00,
2013-03-23 15:12:00,18.0,6.0,-100.00,ESE,106,0.0,12.0,58,-99.99,,,-99.99,136.000000,,2013-03-23 21:12:00,
2013-03-23 15:43:00,18.0,6.0,-100.00,ESE,107,0.0,11.0,59,-99.99,,,-99.99,109.000000,,2013-03-23 21:43:00,
2013-03-23 15:54:00,18.0,6.0,-100.00,ESE,107,0.0,11.0,59,-99.99,,,-99.99,109.000000,,2013-03-23 21:54:00,
2013-03-23 16:02:00,18.0,6.0,-100.00,ESE,107,0.0,11.0,59,-99.99,,,-99.99,109.000000,,2013-03-23 22:02:00,
2013-03-23 16:12:00,18.0,6.0,-100.00,ESE,107,0.0,11.0,59,-99.99,,,-99.99,109.000000,,2013-03-23 22:12:00,
2013-03-23 16:42:00,19.0,7.0,-100.00,SW,229,0.0,5.0,58,-99.99,,,-99.99,52.000000,,2013-03-23 22:42:00,
2013-03-23 16:53:00,19.0,7.0,-100.00,SW,229,0.0,5.0,58,-99.99,,,-99.99,52.000000,,2013-03-23 22:53:00,
2013-03-23 17:02:00,19.0,7.0,-100.00,SW,229,0.0,5.0,58,-99.99,,,-99.99,52.000000,,2013-03-23 23:02:00,
2013-03-23 17:12:00,19.0,7.0,-100.00,SW,229,0.0,5.0,58,-99.99,,,-99.99,52.000000,,2013-03-23 23:12:00,
2013-03-23 17:43:00,18.0,6.0,-100.00,SSW,211,0.0,7.0,60,-99.99,,,-99.99,45.000000,,2013-03-23 23:43:00,
2013-03-23 17:52:00,18.0,6.0,-100.00,SSW,211,0.0,7.0,60,-99.99,,,-99.99,45.000000,,2013-03-23 23:52:00,
2013-03-23 18:02:00,18.0,6.0,-100.00,SSW,211,0.0,7.0,60,-99.99,,,-99.99,45.000000,,2013-03-24 00:02:00,
2013-03-23 18:12:00,18.0,6.0,-100.00,SSW,211,0.0,7.0,60,-99.99,,,-99.99,45.000000,,2013-03-24 00:12:00,
2013-03-23 18:42:00,16.0,6.0,-100.00,WSW,253,0.0,0.0,64,-99.99,,,-99.99,27.000000,,2013-03-24 00:42:00,
2013-03-23 18:52:00,16.0,6.0,-100.00,WSW,253,0.0,0.0,64,-99.99,,,-99.99,27.000000,,2013-03-24 00:52:00,
2013-03-23 19:02:00,16.0,6.0,-100.00,WSW,253,0.0,0.0,64,-99.99,,,-99.99,27.000000,,2013-03-24 01:02:00,
2013-03-23 19:12:00,16.0,6.0,-100.00,WSW,253,0.0,0.0,64,-99.99,,,-99.99,27.000000,,2013-03-24 01:12:00,
2013-03-23 19:43:00,15.0,5.0,-100.00,WSW,251,3.0,6.0,64,-99.99,,,-99.99,10.000000,,2013-03-24 01:43:00,
2013-03-23 19:53:00,15.0,5.0,-100.00,WSW,251,3.0,6.0,64,-99.99,,,-99.99,10.000000,,2013-03-24 01:53:00,
2013-03-23 20:02:00,15.0,5.0,-100.00,WSW,251,3.0,6.0,64,-99.99,,,-99.99,10.000000,,2013-03-24 02:02:00,
2013-03-23 20:12:00,15.0,5.0,-100.00,WSW,251,3.0,6.0,64,-99.99,,,-99.99,10.000000,,2013-03-24 02:12:00,
2013-03-23 20:43:00,13.0,4.0,-100.00,West,263,2.0,9.0,67,-99.99,,,-99.99,1.000000,,2013-03-24 02:43:00,
2013-03-23 20:52:00,13.0,4.0,-100.00,West,263,2.0,9.0,67,-99.99,,,-99.99,1.000000,,2013-03-24 02:52:00,
2013-03-23 21:02:00,13.0,4.0,-100.00,West,263,2.0,9.0,67,-99.99,,,-99.99,1.000000,,2013-03-24 03:02:00,
2013-03-23 21:12:00,13.0,4.0,-100.00,West,263,2.0,9.0,67,-99.99,,,-99.99,1.000000,,2013-03-24 03:12:00,
2013-03-23 21:43:00,12.0,7.0,-100.00,East,88,0.0,10.0,81,-99.99,,,-99.99,0.000000,,2013-03-24 03:43:00,
2013-03-23 21:53:00,12.0,7.0,-100.00,East,88,0.0,10.0,81,-99.99,,,-99.99,0.000000,,2013-03-24 03:53:00,
2013-03-23 22:02:00,12.0,7.0,-100.00,East,88,0.0,10.0,81,-99.99,,,-99.99,0.000000,,2013-03-24 04:02:00,
2013-03-23 22:12:00,12.0,7.0,-100.00,East,88,0.0,10.0,81,-99.99,,,-99.99,0.000000,,2013-03-24 04:12:00,
2013-03-23 22:43:00,11.0,6.0,-100.00,ENE,67,0.0,0.0,80,-99.99,,,-99.99,0.000000,,2013-03-24 04:43:00,
2013-03-23 22:53:00,11.0,6.0,-100.00,ENE,67,0.0,0.0,80,-99.99,,,-99.99,0.000000,,2013-03-24 04:53:00,
2013-03-23 23:02:00,11.0,6.0,-100.00,ENE,67,0.0,0.0,80,-99.99,,,-99.99,0.000000,,2013-03-24 05:02:00,
2013-03-23 23:12:00,11.0,6.0,-100.00,ENE,67,0.0,0.0,80,-99.99,,,-99.99,0.000000,,2013-03-24 05:12:00,
2013-03-23 23:43:00,9.0,5.0,-100.00,NE,39,0.0,2.0,82,-99.99,,,-99.99,0.000000,,2013-03-24 05:43:00,
2013-03-23 23:52:00,9.0,5.0,-100.00,NE,39,0.0,2.0,82,-99.99,,,-99.99,0.000000,,2013-03-24 05:52:00,